カタログに戻る

STARLINK-6332

運用中通信VLEO
NORAD 57339·PAYLOAD·🇺🇸 United States

打ち上げ Jul 16, 2023 から Cape Canaveral Space Force Station

Loading…

次のパス (今後24時間)

TLE

最新Source: CelesTrak SupGP

元期: Sep 14, 2026, 22:22 UTC

1 57339C 23099M   26257.93243056  .00025502  00000+0  92390-3 0  2570
2 57339  42.9991 263.7793 0001362 262.3529 226.5127 15.27558302    15

AllMySatでSTARLINK-6332をリアルタイム追跡

Download on the App Store